Time,TemperatureF,DewpointF,PressureIn,WindDirection,WindDirectionDegrees,WindSpeedMPH,WindSpeedGustMPH,Humidity,HourlyPrecipIn,Conditions,Clouds,dailyrainin,SoftwareType,DateUTC
2013-01-18 00:02:00,38.6,30.0,30.08,NE,42,2.0,7.0,71,0.00,,,0.00,Wunderground v.1.15,2013-01-18 05:02:00,
2013-01-18 00:04:00,38.5,30.3,30.08,NE,42,1.0,7.0,72,0.00,,,0.00,Wunderground v.1.15,2013-01-18 05:04:00,
2013-01-18 00:06:00,38.5,30.3,30.08,NE,42,1.0,7.0,72,0.00,,,0.00,Wunderground v.1.15,2013-01-18 05:06:00,
2013-01-18 00:12:00,38.5,30.6,30.06,NE,37,1.0,7.0,73,0.00,,,0.00,Wunderground v.1.15,2013-01-18 05:12:00,
2013-01-18 00:18:00,38.6,31.0,30.05,NNW,344,3.0,7.0,74,0.00,,,0.00,Wunderground v.1.15,2013-01-18 05:18:00,
2013-01-18 00:24:00,38.4,30.5,30.03,NE,36,5.0,10.0,73,0.00,,,0.00,Wunderground v.1.15,2013-01-18 05:24:00,
2013-01-18 00:26:00,38.4,30.5,30.04,NNE,13,5.0,10.0,73,0.00,,,0.00,Wunderground v.1.15,2013-01-18 05:26:00,
2013-01-18 00:32:00,38.3,30.7,30.04,NE,42,5.0,7.0,74,0.00,,,0.00,Wunderground v.1.15,2013-01-18 05:32:00,
2013-01-18 00:38:00,38.2,30.6,30.07,NE,47,3.0,3.0,74,0.00,,,0.00,Wunderground v.1.15,2013-01-18 05:38:00,
2013-01-18 00:44:00,38.1,30.2,30.05,NE,41,4.0,7.0,73,0.00,,,0.00,Wunderground v.1.15,2013-01-18 05:44:00,
2013-01-18 00:50:00,38.0,30.1,30.06,NNE,28,3.0,5.0,73,0.00,,,0.00,Wunderground v.1.15,2013-01-18 05:50:00,
2013-01-18 00:56:00,37.9,30.0,30.07,NE,51,3.0,7.0,73,0.00,,,0.00,Wunderground v.1.15,2013-01-18 05:56:00,
2013-01-18 01:02:00,37.9,30.4,30.07,NNE,32,3.0,7.0,74,0.00,,,0.00,Wunderground v.1.15,2013-01-18 06:02:00,
2013-01-18 01:08:00,37.8,29.9,30.07,NNE,29,3.0,3.0,73,0.00,,,0.00,Wunderground v.1.15,2013-01-18 06:08:00,
2013-01-18 01:14:00,37.7,29.5,30.08,NNE,31,3.0,7.0,72,0.00,,,0.00,Wunderground v.1.15,2013-01-18 06:14:00,
2013-01-18 01:20:00,37.6,29.4,30.09,NNE,19,2.0,7.0,72,0.00,,,0.00,Wunderground v.1.15,2013-01-18 06:20:00,
2013-01-18 01:26:00,37.6,29.4,30.09,NNE,18,1.0,7.0,72,0.00,,,0.00,Wunderground v.1.15,2013-01-18 06:26:00,
2013-01-18 01:32:00,37.5,29.3,30.10,NE,51,1.0,7.0,72,0.00,,,0.00,Wunderground v.1.15,2013-01-18 06:32:00,
2013-01-18 01:38:00,37.5,29.3,30.09,NE,51,2.0,2.0,72,0.00,,,0.00,Wunderground v.1.15,2013-01-18 06:38:00,
2013-01-18 01:44:00,37.5,29.3,30.08,NE,34,2.0,7.0,72,0.00,,,0.00,Wunderground v.1.15,2013-01-18 06:44:00,
2013-01-18 01:50:00,37.4,29.2,30.10,NNE,13,2.0,7.0,72,0.00,,,0.00,Wunderground v.1.15,2013-01-18 06:50:00,
2013-01-18 01:56:00,37.4,28.9,30.10,North,360,3.0,7.0,71,0.00,,,0.00,Wunderground v.1.15,2013-01-18 06:56:00,
2013-01-18 02:02:00,37.3,28.8,30.10,North,5,3.0,5.0,71,0.00,,,0.00,Wunderground v.1.15,2013-01-18 07:02:00,
2013-01-18 02:08:00,37.3,28.8,30.09,NNE,26,3.0,4.0,71,0.00,,,0.00,Wunderground v.1.15,2013-01-18 07:08:00,
2013-01-18 02:14:00,37.2,28.7,30.11,North,5,3.0,4.0,71,0.00,,,0.00,Wunderground v.1.15,2013-01-18 07:14:00,
2013-01-18 02:20:00,37.1,28.2,30.10,NE,38,3.0,4.0,70,0.00,,,0.00,Wunderground v.1.15,2013-01-18 07:20:00,
2013-01-18 02:26:00,37.0,28.1,30.10,NNE,17,3.0,4.0,70,0.00,,,0.00,Wunderground v.1.15,2013-01-18 07:26:00,
2013-01-18 02:32:00,37.0,28.1,30.11,NE,51,2.0,3.0,70,0.00,,,0.00,Wunderground v.1.15,2013-01-18 07:32:00,
2013-01-18 02:38:00,36.9,27.7,30.12,NNE,17,3.0,6.0,69,0.00,,,0.00,Wunderground v.1.15,2013-01-18 07:38:00,
2013-01-18 02:44:00,36.8,27.2,30.11,NE,34,4.0,6.0,68,0.00,,,0.00,Wunderground v.1.15,2013-01-18 07:44:00,
2013-01-18 02:50:00,36.7,27.5,30.12,East,86,4.0,4.0,69,0.00,,,0.00,Wunderground v.1.15,2013-01-18 07:50:00,
2013-01-18 02:56:00,36.5,27.3,30.11,NE,40,3.0,4.0,69,0.00,,,0.00,Wunderground v.1.15,2013-01-18 07:56:00,
2013-01-18 03:02:00,36.4,27.2,30.11,NNW,337,4.0,5.0,69,0.00,,,0.00,Wunderground v.1.15,2013-01-18 08:02:00,
2013-01-18 03:08:00,36.2,27.4,30.11,ENE,59,4.0,8.0,70,0.00,,,0.00,Wunderground v.1.15,2013-01-18 08:08:00,
2013-01-18 03:14:00,36.2,27.4,30.11,NE,55,4.0,8.0,70,0.00,,,0.00,Wunderground v.1.15,2013-01-18 08:14:00,
2013-01-18 03:20:00,35.9,27.1,30.11,NE,34,3.0,10.0,70,0.00,,,0.00,Wunderground v.1.15,2013-01-18 08:20:00,
2013-01-18 03:26:00,35.8,27.0,30.11,NE,51,5.0,10.0,70,0.00,,,0.00,Wunderground v.1.15,2013-01-18 08:26:00,
2013-01-18 03:32:00,35.7,26.9,30.11,NE,40,4.0,8.0,70,0.00,,,0.00,Wunderground v.1.15,2013-01-18 08:32:00,
2013-01-18 03:38:00,35.7,26.9,30.13,NE,46,4.0,4.0,70,0.00,,,0.00,Wunderground v.1.15,2013-01-18 08:38:00,
2013-01-18 03:44:00,35.6,27.1,30.12,NNE,21,4.0,8.0,71,0.00,,,0.00,Wunderground v.1.15,2013-01-18 08:44:00,
2013-01-18 03:50:00,35.6,26.8,30.12,NE,35,5.0,8.0,70,0.00,,,0.00,Wunderground v.1.15,2013-01-18 08:50:00,
2013-01-18 03:56:00,35.4,26.6,30.13,NE,44,5.0,8.0,70,0.00,,,0.00,Wunderground v.1.15,2013-01-18 08:56:00,
2013-01-18 04:02:00,34.9,25.0,30.15,North,11,6.0,8.0,67,0.00,,,0.00,Wunderground v.1.15,2013-01-18 09:02:00,
2013-01-18 04:08:00,34.5,24.3,30.14,NE,36,6.0,6.0,66,0.00,,,0.00,Wunderground v.1.15,2013-01-18 09:08:00,
2013-01-18 04:14:00,34.3,24.8,30.15,NW,320,5.0,8.0,68,0.00,,,0.00,Wunderground v.1.15,2013-01-18 09:14:00,
2013-01-18 04:20:00,34.0,25.2,30.15,North,355,6.0,8.0,70,0.00,,,0.00,Wunderground v.1.15,2013-01-18 09:20:00,
2013-01-18 04:26:00,33.8,25.0,30.15,NNE,31,6.0,8.0,70,0.00,,,0.00,Wunderground v.1.15,2013-01-18 09:26:00,
2013-01-18 04:32:00,33.5,24.8,30.16,NNE,12,5.0,9.0,70,0.00,,,0.00,Wunderground v.1.15,2013-01-18 09:32:00,
2013-01-18 04:38:00,33.4,24.7,30.16,NNW,332,4.0,8.0,70,0.00,,,0.00,Wunderground v.1.15,2013-01-18 09:38:00,
2013-01-18 04:44:00,33.3,24.9,30.16,NNE,28,3.0,8.0,71,0.00,,,0.00,Wunderground v.1.15,2013-01-18 09:44:00,
2013-01-18 04:50:00,33.2,24.5,30.17,NNW,348,4.0,8.0,70,0.00,,,0.00,Wunderground v.1.15,2013-01-18 09:50:00,
2013-01-18 04:56:00,33.2,24.8,30.18,NNE,12,3.0,8.0,71,0.00,,,0.00,Wunderground v.1.15,2013-01-18 09:56:00,
2013-01-18 05:02:00,33.2,24.5,30.18,North,10,3.0,8.0,70,0.00,,,0.00,Wunderground v.1.15,2013-01-18 10:02:00,
2013-01-18 05:08:00,33.1,24.4,30.19,North,355,3.0,3.0,70,0.00,,,0.00,Wunderground v.1.15,2013-01-18 10:08:00,
2013-01-18 05:14:00,33.0,24.3,30.19,North,355,4.0,8.0,70,0.00,,,0.00,Wunderground v.1.15,2013-01-18 10:14:00,
2013-01-18 05:20:00,32.8,24.1,30.19,NE,46,4.0,6.0,70,0.00,,,0.00,Wunderground v.1.15,2013-01-18 10:20:00,
2013-01-18 05:26:00,32.6,23.9,30.20,NNE,23,4.0,8.0,70,0.00,,,0.00,Wunderground v.1.15,2013-01-18 10:26:00,
2013-01-18 05:32:00,32.5,23.8,30.20,North,9,4.0,8.0,70,0.00,,,0.00,Wunderground v.1.15,2013-01-18 10:32:00,
2013-01-18 05:38:00,32.4,23.7,30.21,NE,51,4.0,8.0,70,0.00,,,0.00,Wunderground v.1.15,2013-01-18 10:38:00,
2013-01-18 05:44:00,32.2,23.2,30.21,NNE,15,5.0,12.0,69,0.00,,,0.00,Wunderground v.1.15,2013-01-18 10:44:00,
2013-01-18 05:50:00,32.1,23.1,30.22,NNE,16,6.0,8.0,69,0.00,,,0.00,Wunderground v.1.15,2013-01-18 10:50:00,
2013-01-18 05:56:00,32.0,23.0,30.23,NNE,13,5.0,8.0,69,0.00,,,0.00,Wunderground v.1.15,2013-01-18 10:56:00,
2013-01-18 06:02:00,31.9,22.9,30.23,NNW,345,4.0,8.0,69,0.00,,,0.00,Wunderground v.1.15,2013-01-18 11:02:00,
2013-01-18 06:08:00,31.8,22.4,30.24,NNW,346,6.0,8.0,68,0.00,,,0.00,Wunderground v.1.15,2013-01-18 11:08:00,
2013-01-18 06:14:00,31.8,22.4,30.25,NNE,20,6.0,8.0,68,0.00,,,0.00,Wunderground v.1.15,2013-01-18 11:14:00,
2013-01-18 06:20:00,31.8,22.4,30.25,North,351,5.0,8.0,68,0.00,,,0.00,Wunderground v.1.15,2013-01-18 11:20:00,
2013-01-18 06:26:00,31.7,22.0,30.26,NNE,22,6.0,8.0,67,0.00,,,0.00,Wunderground v.1.15,2013-01-18 11:26:00,
2013-01-18 06:32:00,31.7,22.0,30.26,North,360,7.0,12.0,67,0.00,,,0.00,Wunderground v.1.15,2013-01-18 11:32:00,
2013-01-18 06:39:00,31.7,22.0,30.27,North,355,6.0,6.0,67,0.00,,,0.00,Wunderground v.1.15,2013-01-18 11:39:00,
2013-01-18 06:44:00,31.7,22.0,30.27,North,5,5.0,8.0,67,0.00,,,0.00,Wunderground v.1.15,2013-01-18 11:44:00,
2013-01-18 06:50:00,31.7,22.0,30.28,North,9,5.0,8.0,67,0.00,,,0.00,Wunderground v.1.15,2013-01-18 11:50:00,
2013-01-18 06:56:00,31.6,21.5,30.28,North,5,5.0,8.0,66,0.00,,,0.00,Wunderground v.1.15,2013-01-18 11:56:00,
2013-01-18 07:02:00,31.6,21.9,30.29,NE,40,5.0,8.0,67,0.00,,,0.00,Wunderground v.1.15,2013-01-18 12:02:00,
2013-01-18 07:08:00,31.5,21.4,30.30,NW,319,5.0,11.0,66,0.00,,,0.00,Wunderground v.1.15,2013-01-18 12:08:00,
2013-01-18 07:14:00,31.5,21.1,30.30,NNW,342,7.0,11.0,65,0.00,,,0.00,Wunderground v.1.15,2013-01-18 12:14:00,
2013-01-18 07:20:00,31.4,21.3,30.31,NNW,338,7.0,8.0,66,0.00,,,0.00,Wunderground v.1.15,2013-01-18 12:20:00,
2013-01-18 07:26:00,31.2,20.8,30.31,North,5,7.0,9.0,65,0.00,,,0.00,Wunderground v.1.15,2013-01-18 12:26:00,
2013-01-18 07:32:00,31.0,21.0,30.31,NNE,28,7.0,10.0,66,0.00,,,0.00,Wunderground v.1.15,2013-01-18 12:32:00,
2013-01-18 07:38:00,30.8,21.1,30.32,NE,46,7.0,8.0,67,0.00,,,0.00,Wunderground v.1.15,2013-01-18 12:38:00,
2013-01-18 07:44:00,30.7,20.7,30.33,West,263,7.0,12.0,66,0.00,,,0.00,Wunderground v.1.15,2013-01-18 12:44:00,
2013-01-18 07:50:00,30.7,20.3,30.33,North,355,7.0,8.0,65,0.00,,,0.00,Wunderground v.1.15,2013-01-18 12:50:00,
2013-01-18 07:56:00,30.7,20.3,30.34,NNW,328,7.0,10.0,65,0.00,,,0.00,Wunderground v.1.15,2013-01-18 12:56:00,
2013-01-18 08:02:00,30.8,19.7,30.35,NE,41,7.0,8.0,63,0.00,,,0.00,Wunderground v.1.15,2013-01-18 13:02:00,
2013-01-18 08:08:00,30.7,19.2,30.36,North,5,7.0,8.0,62,0.00,,,0.00,Wunderground v.1.15,2013-01-18 13:08:00,
2013-01-18 08:14:00,30.7,18.8,30.36,North,5,9.0,9.0,61,0.00,,,0.00,Wunderground v.1.15,2013-01-18 13:14:00,
2013-01-18 08:20:00,30.7,18.4,30.37,NNW,348,8.0,9.0,60,0.00,,,0.00,Wunderground v.1.15,2013-01-18 13:20:00,
2013-01-18 08:26:00,30.5,17.9,30.37,NW,316,9.0,9.0,59,0.00,,,0.00,Wunderground v.1.15,2013-01-18 13:26:00,
2013-01-18 08:32:00,30.4,17.0,30.38,NW,312,9.0,11.0,57,0.00,,,0.00,Wunderground v.1.15,2013-01-18 13:32:00,
2013-01-18 08:38:00,30.3,16.5,30.38,North,350,9.0,9.0,56,0.00,,,0.00,Wunderground v.1.15,2013-01-18 13:38:00,
2013-01-18 08:44:00,30.3,16.5,30.39,NNW,327,8.0,9.0,56,0.00,,,0.00,Wunderground v.1.15,2013-01-18 13:44:00,
2013-01-18 08:50:00,30.4,15.7,30.40,North,351,7.0,13.0,54,0.00,,,0.00,Wunderground v.1.15,2013-01-18 13:50:00,
2013-01-18 08:56:00,30.5,15.8,30.41,NE,36,8.0,13.0,54,0.00,,,0.00,Wunderground v.1.15,2013-01-18 13:56:00,
2013-01-18 09:02:00,30.7,14.2,30.42,NNW,348,8.0,23.0,50,0.00,,,0.00,Wunderground v.1.15,2013-01-18 14:02:00,
2013-01-18 09:08:00,30.8,12.9,30.43,NNE,14,10.0,11.0,47,0.00,,,0.00,Wunderground v.1.15,2013-01-18 14:08:00,
2013-01-18 09:14:00,30.8,12.9,30.43,North,5,11.0,11.0,47,0.00,,,0.00,Wunderground v.1.15,2013-01-18 14:14:00,
2013-01-18 09:20:00,30.9,13.0,30.43,North,351,10.0,10.0,47,0.00,,,0.00,Wunderground v.1.15,2013-01-18 14:20:00,
2013-01-18 09:26:00,31.4,13.0,30.44,ENE,71,10.0,11.0,46,0.00,,,0.00,Wunderground v.1.15,2013-01-18 14:26:00,
2013-01-18 09:32:00,31.4,11.5,30.45,North,5,10.0,14.0,43,0.00,,,0.00,Wunderground v.1.15,2013-01-18 14:32:00,
2013-01-18 09:38:00,31.6,12.7,30.45,North,355,9.0,9.0,45,0.00,,,0.00,Wunderground v.1.15,2013-01-18 14:38:00,
2013-01-18 09:44:00,31.9,12.9,30.45,North,5,8.0,11.0,45,0.00,,,0.00,Wunderground v.1.15,2013-01-18 14:44:00,
2013-01-18 09:50:00,32.1,13.1,30.46,WNW,294,8.0,8.0,45,0.00,,,0.00,Wunderground v.1.15,2013-01-18 14:50:00,
2013-01-18 09:56:00,32.0,12.5,30.46,NNW,335,7.0,9.0,44,0.00,,,0.00,Wunderground v.1.15,2013-01-18 14:56:00,
2013-01-18 10:02:00,32.1,12.1,30.47,ENE,57,8.0,9.0,43,0.00,,,0.00,Wunderground v.1.15,2013-01-18 15:02:00,
2013-01-18 10:08:00,32.0,12.0,30.47,NE,35,9.0,9.0,43,0.00,,,0.00,Wunderground v.1.15,2013-01-18 15:08:00,
2013-01-18 10:14:00,32.3,11.7,30.47,NNW,348,7.0,9.0,42,0.00,,,0.00,Wunderground v.1.15,2013-01-18 15:14:00,
2013-01-18 10:20:00,32.1,11.6,30.47,NW,322,8.0,16.0,42,0.00,,,0.00,Wunderground v.1.15,2013-01-18 15:20:00,
2013-01-18 10:26:00,32.3,12.3,30.48,NNW,344,9.0,16.0,43,0.00,,,0.00,Wunderground v.1.15,2013-01-18 15:26:00,
2013-01-18 10:32:00,32.4,11.8,30.48,NNE,13,7.0,14.0,42,0.00,,,0.00,Wunderground v.1.15,2013-01-18 15:32:00,
2013-01-18 10:38:00,32.4,11.8,30.48,NNW,346,8.0,8.0,42,0.00,,,0.00,Wunderground v.1.15,2013-01-18 15:38:00,
2013-01-18 10:44:00,32.6,13.1,30.48,NW,318,7.0,11.0,44,0.00,,,0.00,Wunderground v.1.15,2013-01-18 15:44:00,
2013-01-18 10:50:00,33.2,14.1,30.47,NNW,346,7.0,8.0,45,0.00,,,0.00,Wunderground v.1.15,2013-01-18 15:50:00,
2013-01-18 10:56:00,33.4,12.7,30.47,NNW,340,8.0,8.0,42,0.00,,,0.00,Wunderground v.1.15,2013-01-18 15:56:00,
2013-01-18 11:02:00,32.9,12.3,30.47,NE,40,9.0,12.0,42,0.00,,,0.00,Wunderground v.1.15,2013-01-18 16:02:00,
2013-01-18 11:08:00,32.4,11.8,30.47,NNE,16,10.0,10.0,42,0.00,,,0.00,Wunderground v.1.15,2013-01-18 16:08:00,
2013-01-18 11:14:00,31.9,10.8,30.47,North,360,10.0,14.0,41,0.00,,,0.00,Wunderground v.1.15,2013-01-18 16:14:00,
2013-01-18 11:20:00,31.9,11.9,30.47,North,11,8.0,9.0,43,0.00,,,0.00,Wunderground v.1.15,2013-01-18 16:20:00,
2013-01-18 11:26:00,32.6,13.1,30.47,NNE,22,7.0,13.0,44,0.00,,,0.00,Wunderground v.1.15,2013-01-18 16:26:00,
2013-01-18 11:32:00,32.0,13.0,30.47,NNE,13,8.0,16.0,45,0.00,,,0.00,Wunderground v.1.15,2013-01-18 16:32:00,
2013-01-18 11:39:00,32.3,12.8,30.47,NNE,28,8.0,8.0,44,0.00,,,0.00,Wunderground v.1.15,2013-01-18 16:39:00,
2013-01-18 11:44:00,32.5,11.9,30.47,NNE,24,8.0,8.0,42,0.00,,,0.00,Wunderground v.1.15,2013-01-18 16:44:00,
2013-01-18 11:50:00,32.5,12.5,30.47,NW,316,8.0,8.0,43,0.00,,,0.00,Wunderground v.1.15,2013-01-18 16:50:00,
2013-01-18 11:56:00,32.9,12.8,30.47,WNW,303,7.0,10.0,43,0.00,,,0.00,Wunderground v.1.15,2013-01-18 16:56:00,
2013-01-18 12:02:00,32.8,12.7,30.47,NW,321,8.0,9.0,43,0.00,,,0.00,Wunderground v.1.15,2013-01-18 17:02:00,
2013-01-18 12:08:00,32.3,12.8,30.48,North,360,7.0,7.0,44,0.00,,,0.00,Wunderground v.1.15,2013-01-18 17:08:00,
2013-01-18 12:14:00,32.6,13.1,30.48,WNW,303,7.0,15.0,44,0.00,,,0.00,Wunderground v.1.15,2013-01-18 17:14:00,
2013-01-18 12:21:00,33.0,12.4,30.47,North,355,9.0,16.0,42,0.00,,,0.00,Wunderground v.1.15,2013-01-18 17:21:00,
2013-01-18 12:26:00,33.1,11.4,30.47,NW,326,8.0,16.0,40,0.00,,,0.00,Wunderground v.1.15,2013-01-18 17:26:00,
2013-01-18 12:32:00,33.3,11.5,30.47,WNW,286,8.0,8.0,40,0.00,,,0.00,Wunderground v.1.15,2013-01-18 17:32:00,
2013-01-18 12:38:00,33.4,12.2,30.47,North,360,7.0,7.0,41,0.00,,,0.00,Wunderground v.1.15,2013-01-18 17:38:00,
2013-01-18 12:44:00,33.9,11.5,30.47,NW,325,6.0,8.0,39,0.00,,,0.00,Wunderground v.1.15,2013-01-18 17:44:00,
2013-01-18 12:50:00,33.8,10.2,30.47,North,350,6.0,14.0,37,0.00,,,0.00,Wunderground v.1.15,2013-01-18 17:50:00,
2013-01-18 12:56:00,33.3,11.5,30.47,NNW,344,7.0,14.0,40,0.00,,,0.00,Wunderground v.1.15,2013-01-18 17:56:00,
2013-01-18 13:02:00,33.7,10.7,30.47,NNE,26,7.0,9.0,38,0.00,,,0.00,Wunderground v.1.15,2013-01-18 18:02:00,
2013-01-18 13:08:00,33.4,11.6,30.47,NNW,348,7.0,7.0,40,0.00,,,0.00,Wunderground v.1.15,2013-01-18 18:08:00,
2013-01-18 13:14:00,33.4,11.1,30.47,NNW,340,7.0,8.0,39,0.00,,,0.00,Wunderground v.1.15,2013-01-18 18:14:00,
2013-01-18 13:20:00,33.7,12.5,30.46,WNW,296,5.0,9.0,41,0.00,,,0.00,Wunderground v.1.15,2013-01-18 18:20:00,
2013-01-18 13:27:00,34.4,12.5,30.46,NNW,348,5.0,11.0,40,0.00,,,0.00,Wunderground v.1.15,2013-01-18 18:27:00,
2013-01-18 13:32:00,34.8,11.7,30.47,NNW,346,5.0,8.0,38,0.00,,,0.00,Wunderground v.1.15,2013-01-18 18:32:00,
2013-01-18 13:38:00,34.7,11.0,30.47,NNE,22,6.0,8.0,37,0.00,,,0.00,Wunderground v.1.15,2013-01-18 18:38:00,
2013-01-18 13:44:00,34.1,11.1,30.47,NNE,19,6.0,8.0,38,0.00,,,0.00,Wunderground v.1.15,2013-01-18 18:44:00,
2013-01-18 13:50:00,34.3,11.3,30.48,NNW,333,5.0,13.0,38,0.00,,,0.00,Wunderground v.1.15,2013-01-18 18:50:00,
2013-01-18 13:56:00,34.2,11.2,30.48,WNW,292,7.0,13.0,38,0.00,,,0.00,Wunderground v.1.15,2013-01-18 18:56:00,
2013-01-18 14:02:00,34.4,11.4,30.48,NW,320,6.0,9.0,38,0.00,,,0.00,Wunderground v.1.15,2013-01-18 19:02:00,
2013-01-18 14:08:00,34.6,11.6,30.48,NW,309,7.0,7.0,38,0.00,,,0.00,Wunderground v.1.15,2013-01-18 19:08:00,
2013-01-18 14:14:00,34.5,10.2,30.48,NNW,338,7.0,8.0,36,0.00,,,0.00,Wunderground v.1.15,2013-01-18 19:14:00,
2013-01-18 14:20:00,33.5,10.0,30.48,NE,44,8.0,11.0,37,0.00,,,0.00,Wunderground v.1.15,2013-01-18 19:20:00,
2013-01-18 14:26:00,32.9,10.0,30.48,North,5,8.0,11.0,38,0.00,,,0.00,Wunderground v.1.15,2013-01-18 19:26:00,
2013-01-18 14:33:00,33.6,11.2,30.48,West,265,6.0,8.0,39,0.00,,,0.00,Wunderground v.1.15,2013-01-18 19:33:00,
2013-01-18 14:38:00,33.9,10.9,30.48,WNW,285,6.0,6.0,38,0.00,,,0.00,Wunderground v.1.15,2013-01-18 19:38:00,
2013-01-18 14:44:00,34.2,10.6,30.48,NW,314,6.0,8.0,37,0.00,,,0.00,Wunderground v.1.15,2013-01-18 19:44:00,
2013-01-18 14:50:00,34.1,10.5,30.48,NW,319,6.0,8.0,37,0.00,,,0.00,Wunderground v.1.15,2013-01-18 19:50:00,
2013-01-18 14:56:00,33.7,9.5,30.49,WNW,296,6.0,8.0,36,0.00,,,0.00,Wunderground v.1.15,2013-01-18 19:56:00,
2013-01-18 15:02:00,34.1,9.9,30.49,North,9,5.0,8.0,36,0.00,,,0.00,Wunderground v.1.15,2013-01-18 20:02:00,
2013-01-18 15:08:00,34.7,10.4,30.49,NNW,338,4.0,4.0,36,0.00,,,0.00,Wunderground v.1.15,2013-01-18 20:08:00,
2013-01-18 15:15:00,34.8,9.9,30.49,NW,308,5.0,9.0,35,0.00,,,0.00,Wunderground v.1.15,2013-01-18 20:15:00,
2013-01-18 15:20:00,34.6,9.7,30.49,North,355,5.0,8.0,35,0.00,,,0.00,Wunderground v.1.15,2013-01-18 20:20:00,
2013-01-18 15:26:00,34.2,10.0,30.49,North,350,4.0,8.0,36,0.00,,,0.00,Wunderground v.1.15,2013-01-18 20:26:00,
2013-01-18 15:32:00,34.2,10.0,30.49,WNW,292,4.0,8.0,36,0.00,,,0.00,Wunderground v.1.15,2013-01-18 20:32:00,
2013-01-18 15:39:00,34.2,10.0,30.49,ENE,57,4.0,4.0,36,0.00,,,0.00,Wunderground v.1.15,2013-01-18 20:39:00,
2013-01-18 15:44:00,33.9,9.7,30.49,NNE,21,4.0,8.0,36,0.00,,,0.00,Wunderground v.1.15,2013-01-18 20:44:00,
2013-01-18 15:50:00,33.5,10.0,30.49,NNW,348,4.0,8.0,37,0.00,,,0.00,Wunderground v.1.15,2013-01-18 20:50:00,
2013-01-18 15:57:00,33.9,9.7,30.50,NNE,22,3.0,8.0,36,0.00,,,0.00,Wunderground v.1.15,2013-01-18 20:57:00,
2013-01-18 16:02:00,33.6,10.1,30.50,WNW,293,3.0,8.0,37,0.00,,,0.00,Wunderground v.1.15,2013-01-18 21:02:00,
2013-01-18 16:09:00,33.1,10.2,30.50,WNW,296,4.0,4.0,38,0.00,,,0.00,Wunderground v.1.15,2013-01-18 21:09:00,
2013-01-18 16:14:00,32.6,9.2,30.50,NW,305,3.0,8.0,37,0.00,,,0.00,Wunderground v.1.15,2013-01-18 21:14:00,
2013-01-18 16:20:00,32.4,10.2,30.50,NW,305,1.0,8.0,39,0.00,,,0.00,Wunderground v.1.15,2013-01-18 21:20:00,
2013-01-18 16:26:00,32.1,9.9,30.51,WNW,290,2.0,8.0,39,0.00,,,0.00,Wunderground v.1.15,2013-01-18 21:26:00,
2013-01-18 16:32:00,31.7,9.0,30.50,West,264,3.0,8.0,38,0.00,,,0.00,Wunderground v.1.15,2013-01-18 21:32:00,
2013-01-18 16:38:00,31.2,10.2,30.51,WNW,299,3.0,3.0,41,0.00,,,0.00,Wunderground v.1.15,2013-01-18 21:38:00,
2013-01-18 16:44:00,30.9,9.9,30.51,WNW,302,2.0,8.0,41,0.00,,,0.00,Wunderground v.1.15,2013-01-18 21:44:00,
2013-01-18 16:50:00,30.7,9.7,30.51,WNW,302,2.0,8.0,41,0.00,,,0.00,Wunderground v.1.15,2013-01-18 21:50:00,
2013-01-18 16:56:00,30.5,9.6,30.52,NW,309,3.0,8.0,41,0.00,,,0.00,Wunderground v.1.15,2013-01-18 21:56:00,
2013-01-18 17:02:00,30.2,10.4,30.52,NW,319,2.0,8.0,43,0.00,,,0.00,Wunderground v.1.15,2013-01-18 22:02:00,
2013-01-18 17:08:00,30.0,10.2,30.52,NW,304,1.0,1.0,43,0.00,,,0.00,Wunderground v.1.15,2013-01-18 22:08:00,
2013-01-18 17:14:00,29.8,10.5,30.53,NW,304,1.0,8.0,44,0.00,,,0.00,Wunderground v.1.15,2013-01-18 22:14:00,
2013-01-18 17:20:00,29.6,10.3,30.53,NW,304,1.0,8.0,44,0.00,,,0.00,Wunderground v.1.15,2013-01-18 22:20:00,
2013-01-18 17:26:00,29.4,10.1,30.53,West,259,1.0,8.0,44,0.00,,,0.00,Wunderground v.1.15,2013-01-18 22:26:00,
2013-01-18 17:32:00,29.3,10.1,30.53,WSW,245,1.0,8.0,44,0.00,,,0.00,Wunderground v.1.15,2013-01-18 22:32:00,
2013-01-18 17:38:00,29.3,10.6,30.54,WSW,245,2.0,2.0,45,0.00,,,0.00,Wunderground v.1.15,2013-01-18 22:38:00,
2013-01-18 17:44:00,29.2,10.5,30.54,West,281,1.0,8.0,45,0.00,,,0.00,Wunderground v.1.15,2013-01-18 22:44:00,
2013-01-18 17:50:00,29.1,10.9,30.54,SW,215,2.0,8.0,46,0.00,,,0.00,Wunderground v.1.15,2013-01-18 22:50:00,
2013-01-18 17:57:00,29.0,11.3,30.54,SSW,212,1.0,8.0,47,0.00,,,0.00,Wunderground v.1.15,2013-01-18 22:57:00,
2013-01-18 18:02:00,28.8,10.6,30.54,SSW,212,1.0,8.0,46,0.00,,,0.00,Wunderground v.1.15,2013-01-18 23:02:00,
2013-01-18 18:09:00,28.5,11.3,30.54,SSW,212,1.0,8.0,48,0.00,,,0.00,Wunderground v.1.15,2013-01-18 23:09:00,
2013-01-18 18:15:00,28.3,11.1,30.54,SSW,212,0.0,8.0,48,0.00,,,0.00,Wunderground v.1.15,2013-01-18 23:15:00,
2013-01-18 18:20:00,28.1,11.4,30.54,SSW,212,0.0,8.0,49,0.00,,,0.00,Wunderground v.1.15,2013-01-18 23:20:00,
2013-01-18 18:26:00,28.0,11.7,30.54,SSW,212,0.0,8.0,50,0.00,,,0.00,Wunderground v.1.15,2013-01-18 23:26:00,
2013-01-18 18:32:00,27.8,11.5,30.54,SSW,212,0.0,8.0,50,0.00,,,0.00,Wunderground v.1.15,2013-01-18 23:32:00,
2013-01-18 18:38:00,27.6,11.8,30.55,SSW,212,0.0,8.0,51,0.00,,,0.00,Wunderground v.1.15,2013-01-18 23:38:00,
2013-01-18 18:44:00,27.4,12.9,30.55,SSW,212,0.0,8.0,54,0.00,,,0.00,Wunderground v.1.15,2013-01-18 23:44:00,
2013-01-18 18:50:00,27.2,13.1,30.55,SSW,212,0.0,8.0,55,0.00,,,0.00,Wunderground v.1.15,2013-01-18 23:50:00,
2013-01-18 18:56:00,27.1,12.2,30.55,SSW,212,0.0,8.0,53,0.00,,,0.00,Wunderground v.1.15,2013-01-18 23:56:00,
2013-01-18 19:02:00,27.1,11.8,30.56,SSW,212,0.0,8.0,52,0.00,,,0.00,Wunderground v.1.15,2013-01-19 00:02:00,
2013-01-18 19:08:00,27.2,12.3,30.56,SSW,212,0.0,8.0,53,0.00,,,0.00,Wunderground v.1.15,2013-01-19 00:08:00,
2013-01-18 19:14:00,27.2,14.8,30.55,SSW,212,0.0,8.0,59,0.00,,,0.00,Wunderground v.1.15,2013-01-19 00:14:00,
2013-01-18 19:20:00,27.2,14.0,30.55,SSW,212,0.0,8.0,57,0.00,,,0.00,Wunderground v.1.15,2013-01-19 00:20:00,
2013-01-18 19:26:00,27.2,14.0,30.55,SSW,212,0.0,8.0,57,0.00,,,0.00,Wunderground v.1.15,2013-01-19 00:26:00,
2013-01-18 19:33:00,27.3,12.8,30.55,SSE,162,0.0,8.0,54,0.00,,,0.00,Wunderground v.1.15,2013-01-19 00:33:00,
2013-01-18 19:38:00,27.2,14.4,30.55,SSE,162,0.0,8.0,58,0.00,,,0.00,Wunderground v.1.15,2013-01-19 00:38:00,
2013-01-18 19:45:00,27.1,14.3,30.55,SSE,162,0.0,8.0,58,0.00,,,0.00,Wunderground v.1.15,2013-01-19 00:45:00,
2013-01-18 19:50:00,27.0,13.4,30.55,SSE,162,0.0,8.0,56,0.00,,,0.00,Wunderground v.1.15,2013-01-19 00:50:00,
2013-01-18 19:56:00,27.0,13.8,30.54,SSE,160,0.0,8.0,57,0.00,,,0.00,Wunderground v.1.15,2013-01-19 00:56:00,
2013-01-18 20:02:00,27.1,13.1,30.54,SSE,160,0.0,8.0,55,0.00,,,0.00,Wunderground v.1.15,2013-01-19 01:02:00,
2013-01-18 20:08:00,27.1,13.1,30.54,SSE,160,0.0,8.0,55,0.00,,,0.00,Wunderground v.1.15,2013-01-19 01:08:00,
2013-01-18 20:14:00,27.0,12.1,30.54,SSE,160,0.0,8.0,53,0.00,,,0.00,Wunderground v.1.15,2013-01-19 01:14:00,
2013-01-18 20:20:00,27.0,13.0,30.54,SSE,160,0.0,8.0,55,0.00,,,0.00,Wunderground v.1.15,2013-01-19 01:20:00,
2013-01-18 20:26:00,27.0,13.8,30.53,SSE,160,0.0,8.0,57,0.00,,,0.00,Wunderground v.1.15,2013-01-19 01:26:00,
2013-01-18 20:32:00,27.0,14.2,30.53,SSE,160,0.0,8.0,58,0.00,,,0.00,Wunderground v.1.15,2013-01-19 01:32:00,
2013-01-18 20:38:00,26.7,14.3,30.53,SSE,160,0.0,8.0,59,0.00,,,0.00,Wunderground v.1.15,2013-01-19 01:38:00,
2013-01-18 20:44:00,26.6,13.8,30.53,SSE,160,0.0,8.0,58,0.00,,,0.00,Wunderground v.1.15,2013-01-19 01:44:00,
2013-01-18 20:51:00,26.5,14.9,30.53,SSE,160,0.0,8.0,61,0.00,,,0.00,Wunderground v.1.15,2013-01-19 01:51:00,
2013-01-18 20:56:00,26.4,13.6,30.52,SSE,160,0.0,8.0,58,0.00,,,0.00,Wunderground v.1.15,2013-01-19 01:56:00,
2013-01-18 21:02:00,26.5,13.7,30.52,SSE,160,1.0,8.0,58,0.00,,,0.00,Wunderground v.1.15,2013-01-19 02:02:00,
2013-01-18 21:09:00,26.5,13.7,30.52,SSE,160,0.0,8.0,58,0.00,,,0.00,Wunderground v.1.15,2013-01-19 02:09:00,
2013-01-18 21:14:00,26.7,13.5,30.52,SW,224,1.0,8.0,57,0.00,,,0.00,Wunderground v.1.15,2013-01-19 02:14:00,
2013-01-18 21:20:00,26.7,13.5,30.52,SW,224,1.0,8.0,57,0.00,,,0.00,Wunderground v.1.15,2013-01-19 02:20:00,
2013-01-18 21:26:00,26.8,13.6,30.52,SW,224,1.0,8.0,57,0.00,,,0.00,Wunderground v.1.15,2013-01-19 02:26:00,
2013-01-18 21:33:00,26.8,13.2,30.52,SW,224,1.0,8.0,56,0.00,,,0.00,Wunderground v.1.15,2013-01-19 02:33:00,
2013-01-18 21:38:00,27.0,13.4,30.52,SW,224,1.0,8.0,56,0.00,,,0.00,Wunderground v.1.15,2013-01-19 02:38:00,
2013-01-18 21:44:00,27.1,13.5,30.53,SW,227,2.0,8.0,56,0.00,,,0.00,Wunderground v.1.15,2013-01-19 02:44:00,
2013-01-18 21:51:00,27.2,13.6,30.53,SW,227,1.0,8.0,56,0.00,,,0.00,Wunderground v.1.15,2013-01-19 02:51:00,
2013-01-18 21:56:00,27.2,13.1,30.53,SW,226,2.0,8.0,55,0.00,,,0.00,Wunderground v.1.15,2013-01-19 02:56:00,
2013-01-18 22:02:00,27.2,13.6,30.53,SW,226,1.0,8.0,56,0.00,,,0.00,Wunderground v.1.15,2013-01-19 03:02:00,
2013-01-18 22:08:00,27.2,13.6,30.52,SW,220,1.0,8.0,56,0.00,,,0.00,Wunderground v.1.15,2013-01-19 03:08:00,
2013-01-18 22:14:00,27.1,13.9,30.52,SW,220,1.0,8.0,57,0.00,,,0.00,Wunderground v.1.15,2013-01-19 03:14:00,
2013-01-18 22:21:00,27.1,13.9,30.52,SSW,196,1.0,8.0,57,0.00,,,0.00,Wunderground v.1.15,2013-01-19 03:21:00,
2013-01-18 22:26:00,27.0,14.2,30.52,SE,133,1.0,8.0,58,0.00,,,0.00,Wunderground v.1.15,2013-01-19 03:26:00,
2013-01-18 22:33:00,26.9,14.1,30.51,SSW,212,0.0,8.0,58,0.00,,,0.00,Wunderground v.1.15,2013-01-19 03:33:00,
2013-01-18 22:38:00,27.0,13.8,30.51,WSW,247,1.0,1.0,57,0.00,,,0.00,Wunderground v.1.15,2013-01-19 03:38:00,
2013-01-18 22:45:00,26.8,14.0,30.51,WSW,247,1.0,8.0,58,0.00,,,0.00,Wunderground v.1.15,2013-01-19 03:45:00,
2013-01-18 22:50:00,27.0,13.4,30.51,WSW,247,1.0,8.0,56,0.00,,,0.00,Wunderground v.1.15,2013-01-19 03:50:00,
2013-01-18 22:56:00,27.1,14.3,30.51,WSW,247,1.0,8.0,58,0.00,,,0.00,Wunderground v.1.15,2013-01-19 03:56:00,
2013-01-18 23:03:00,27.2,13.6,30.50,WSW,244,1.0,8.0,56,0.00,,,0.00,Wunderground v.1.15,2013-01-19 04:03:00,
2013-01-18 23:08:00,27.3,14.1,30.50,WSW,244,1.0,8.0,57,0.00,,,0.00,Wunderground v.1.15,2013-01-19 04:08:00,
2013-01-18 23:14:00,27.2,14.0,30.50,WSW,244,1.0,8.0,57,0.00,,,0.00,Wunderground v.1.15,2013-01-19 04:14:00,
2013-01-18 23:20:00,27.1,14.3,30.50,WSW,244,0.0,8.0,58,0.00,,,0.00,Wunderground v.1.15,2013-01-19 04:20:00,
2013-01-18 23:27:00,27.0,14.2,30.49,WSW,244,1.0,8.0,58,0.00,,,0.00,Wunderground v.1.15,2013-01-19 04:27:00,
2013-01-18 23:32:00,27.0,14.2,30.49,SE,140,1.0,8.0,58,0.00,,,0.00,Wunderground v.1.15,2013-01-19 04:32:00,
2013-01-18 23:38:00,27.0,14.6,30.48,SSW,209,1.0,8.0,59,0.00,,,0.00,Wunderground v.1.15,2013-01-19 04:38:00,
2013-01-18 23:44:00,26.8,14.8,30.49,SE,135,1.0,8.0,60,0.00,,,0.00,Wunderground v.1.15,2013-01-19 04:44:00,
2013-01-18 23:50:00,26.8,14.8,30.48,SE,135,1.0,8.0,60,0.00,,,0.00,Wunderground v.1.15,2013-01-19 04:50:00,
2013-01-18 23:56:00,26.9,14.9,30.48,South,189,1.0,8.0,60,0.00,,,0.00,Wunderground v.1.15,2013-01-19 04:56:00,